Location: Brunsbüttel
(52.3892°N, 10.6138°E)
Time: 06:43:45
(UTC+00:00)

Cosmos 2333 Rocket - Pass Details

Date: 19 May 2025
Orbit: 840 x 862 km, 70.8° (Epoch: 22 June)

Event Time Altitude Azimuth Distance (km) Brightness Sun altitude
Rises 20:18:52 0° 325° (NW) 3,446 7.7 -8.3°
Reaches altitude 10° 20:22:06 10° 343° (NNW) 2,504 5.9 -8.6°
Maximum altitude 20:26:09 19° 28° (NNE) 1,921 4.4 -9.0°
Drops below altitude 10° 20:30:11 10° 73° (ENE) 2,488 4.4 -9.4°
Sets 20:33:23 0° 91° (E) 3,416 5.0 -9.7°
